Andrews, TX

9:37 AM CST on December 09, 2019 (GMT -0600)
Andrews

Weather History for KE11 - October, 2019

Change the Weather History Date:

Thursday, October 31, 2019

  Actual Average (KMAF) Record (KMAF)
Temperature  
Mean Temperature 35 °F -  
Max Temperature 52 °F 68 °F 89 °F (1934)
Min Temperature 18 °F 45 °F 25 °F (1993)
Degree Days  
Heating Degree Days 30    
Moisture  
Dew Point 17 °F    
Average Humidity 56    
Maximum Humidity 90    
Minimum Humidity 22    
Precipitation  
Precipitation 0.00 in - - ()
Sea Level Pressure  
Sea Level Pressure 30.39 in    
Wind  
Wind Speed 6 mph ()    
Max Wind Speed 10 mph    
Max Gust Speed -    
Visibility 10.0 miles    
Events      
Averages and records for this station are not official NWS values.
T = Trace of Precipitation, MM = Missing Value Source: Averaged Metar Reports

Daily Weather History Graph

Daily Weather History Graph

Search for Another Location

Airport or City:

Astronomy

Oct. 31, 2019 Rise Set
Actual Time 8:06 AM CDT 7:00 PM CDT
Civil Twilight 7:40 AM CDT 7:26 PM CDT
Nautical Twilight 7:11 AM CDT 7:55 PM CDT
Astronomical Twilight 6:43 AM CDT 8:23 PM CDT
Moon 11:47 AM CDT (10/31) 10:08 PM CDT (10/31)
Length of Visible Light 11h 45m
Length of Day
10h 54m
Waxing Crescent, 16% of the Moon is Illuminated
Oct 31
Waxing Crescent
Nov 4
First Quarter
Nov 12
Full
Nov 19
Last Quarter
Nov 26
New

Hourly Weather History & Observations

Time (CDT) Temp. Windchill Dew Point Humidity Pressure Visibility Wind Dir Wind Speed Gust Speed Precip Events Conditions
12:15 AM 23.9 °F 15.0 °F 19.4 °F 83% 30.42 in 10.0 mi North 8.1 mph - N/A   Clear
12:35 AM 23.0 °F 13.9 °F 18.9 °F 84% 30.42 in 10.0 mi North 8.1 mph - N/A   Clear
12:55 AM 22.1 °F 12.8 °F 18.7 °F 87% 30.43 in 10.0 mi North 8.1 mph - N/A   Clear
1:15 AM 20.7 °F 13.0 °F 18.1 °F 90% 30.43 in 10.0 mi NNW 5.8 mph - N/A   Clear
1:35 AM 21.6 °F 15.3 °F 18.5 °F 88% 30.43 in 10.0 mi NNW 4.6 mph - N/A   Clear
1:55 AM 20.1 °F 11.3 °F 17.2 °F 89% 30.43 in 10.0 mi NNW 6.9 mph - N/A   Clear
2:15 AM 20.3 °F 13.8 °F 17.6 °F 89% 30.43 in 10.0 mi NNW 4.6 mph - N/A   Clear
2:35 AM 20.8 °F 13.2 °F 18.0 °F 89% 30.44 in 10.0 mi NW 5.8 mph - N/A   Clear
2:55 AM 21.6 °F 14.0 °F 17.4 °F 84% 30.44 in 10.0 mi NW 5.8 mph - N/A   Clear
3:15 AM 20.5 °F 14.0 °F 16.7 °F 85% 30.44 in 10.0 mi WNW 4.6 mph - N/A   Clear
3:35 AM 20.1 °F 13.6 °F 16.3 °F 85% 30.43 in 10.0 mi WNW 4.6 mph - N/A   Clear
3:55 AM 19.6 °F 11.7 °F 16.3 °F 87% 30.43 in 10.0 mi NW 5.8 mph - N/A   Clear
4:15 AM 20.3 °F 12.5 °F 16.3 °F 85% 30.42 in 10.0 mi WNW 5.8 mph - N/A   Clear
4:35 AM 20.3 °F 12.5 °F 16.3 °F 85% 30.43 in 10.0 mi NW 5.8 mph - N/A   Clear
4:55 AM 20.3 °F 13.8 °F 15.8 °F 83% 30.43 in 10.0 mi NW 4.6 mph - N/A   Clear
5:15 AM 19.4 °F 10.4 °F 15.6 °F 85% 30.43 in 10.0 mi WNW 6.9 mph - N/A   Clear
5:35 AM 19.9 °F 11.1 °F 15.8 °F 84% 30.43 in 10.0 mi WNW 6.9 mph - N/A   Clear
5:55 AM 20.1 °F 12.3 °F 15.6 °F 83% 30.43 in 10.0 mi WNW 5.8 mph - N/A   Clear
6:15 AM 19.0 °F 12.3 °F 14.9 °F 84% 30.44 in 10.0 mi West 4.6 mph - N/A   Clear
6:35 AM 19.8 °F 13.2 °F 15.4 °F 83% 30.44 in 10.0 mi WNW 4.6 mph - N/A   Clear
6:55 AM 19.9 °F 12.1 °F 15.3 °F 82% 30.44 in 10.0 mi WNW 5.8 mph - N/A   Clear
7:15 AM 19.2 °F 12.5 °F 14.5 °F 82% 30.44 in 10.0 mi WNW 4.6 mph - N/A   Clear
7:35 AM 19.0 °F 12.3 °F 14.5 °F 83% 30.45 in 10.0 mi WNW 4.6 mph - N/A   Clear
7:55 AM 18.9 °F 12.1 °F 14.7 °F 84% 30.45 in 10.0 mi WNW 4.6 mph - N/A   Clear
8:15 AM 20.5 °F 12.8 °F 15.4 °F 81% 30.45 in 10.0 mi WNW 5.8 mph - N/A   Clear
8:35 AM 21.6 °F 12.1 °F 15.6 °F 78% 30.45 in 10.0 mi West 8.1 mph - N/A   Clear
8:55 AM 23.0 °F 15.8 °F 15.8 °F 74% 30.45 in 10.0 mi WNW 5.8 mph - N/A   Clear
9:15 AM 24.4 °F 16.5 °F 16.5 °F 72% 30.45 in 10.0 mi West 6.9 mph - N/A   Clear
9:35 AM 26.8 °F 19.3 °F 17.2 °F 67% 30.46 in 10.0 mi West 6.9 mph - N/A   Clear
9:55 AM 29.3 °F 24.3 °F 19.0 °F 66% 30.46 in 10.0 mi WNW 4.6 mph - N/A   Clear
10:15 AM 32.7 °F 28.3 °F 19.8 °F 59% 30.46 in 10.0 mi West 4.6 mph - N/A   Clear
10:35 AM 34.0 °F 28.8 °F 20.7 °F 58% 30.46 in 10.0 mi West 5.8 mph - N/A   Clear
10:55 AM 36.9 °F 31.4 °F 21.4 °F 54% 30.47 in 10.0 mi West 6.9 mph - N/A   Clear
11:15 AM 38.5 °F 34.1 °F 21.4 °F 50% 30.46 in 10.0 mi West 5.8 mph - N/A   Clear
11:35 AM 40.1 °F 35.3 °F 21.7 °F 48% 30.46 in 10.0 mi WSW 6.9 mph - N/A   Clear
11:55 AM 40.5 °F 35.8 °F 20.7 °F 45% 30.46 in 10.0 mi WSW 6.9 mph - N/A   Clear
12:15 PM 41.9 °F 36.9 °F 20.5 °F 42% 30.46 in 10.0 mi WSW 8.1 mph - N/A   Clear
12:35 PM 42.4 °F 37.0 °F 20.3 °F 41% 30.44 in 10.0 mi SW 9.2 mph - N/A   Clear
12:55 PM 43.2 °F 37.9 °F 19.6 °F 39% 30.44 in 10.0 mi SW 9.2 mph - N/A   Clear
1:15 PM 45.0 °F 40.6 °F 19.0 °F 36% 30.42 in 10.0 mi SSW 8.1 mph - N/A   Clear
1:35 PM 45.7 °F 41.0 °F 18.7 °F 34% 30.41 in 10.0 mi WSW 9.2 mph - N/A   Clear
1:55 PM 47.3 °F - 18.7 °F 32% 30.39 in 10.0 mi WSW 9.2 mph - N/A   Clear
2:15 PM 48.2 °F - 18.5 °F 31% 30.38 in 10.0 mi SSW 6.9 mph - N/A   Clear
2:35 PM 49.3 °F - 17.1 °F 28% 30.37 in 10.0 mi SW 8.1 mph - N/A   Clear
2:55 PM 49.5 °F - 15.6 °F 26% 30.36 in 10.0 mi West 5.8 mph - N/A   Clear
3:35 PM 51.4 °F - 16.0 °F 25% 30.35 in 10.0 mi WSW 6.9 mph - N/A   Clear
3:55 PM 51.6 °F - 16.0 °F 24% 30.34 in 10.0 mi WSW 10.4 mph - N/A   Clear
4:20 PM - - - N/A% 30.33 in 10.0 mi WSW 9.2 mph - N/A   Clear
4:55 PM 52.2 °F - 15.1 °F 23% 30.32 in 10.0 mi SW 8.1 mph - N/A   Clear
5:15 PM 52.5 °F - 15.6 °F 23% 30.32 in 10.0 mi SW 8.1 mph - N/A   Clear
5:35 PM 52.0 °F - 14.7 °F 23% 30.32 in 10.0 mi WSW 6.9 mph - N/A   Clear
5:55 PM 51.6 °F - 14.2 °F 23% 30.32 in 10.0 mi SW 8.1 mph - N/A   Clear
6:15 PM 50.9 °F - 13.5 °F 22% 30.31 in 10.0 mi SW 4.6 mph - N/A   Clear
6:35 PM 49.5 °F - 14.4 °F 25% 30.31 in 10.0 mi South 5.8 mph - N/A   Clear
6:55 PM 46.6 °F - 13.3 °F 26% 30.31 in 10.0 mi SSW 4.6 mph - N/A   Clear
7:15 PM 44.8 °F 43.3 °F 13.6 °F 28% 30.31 in 10.0 mi South 3.5 mph - N/A   Clear
7:35 PM 44.2 °F 41.8 °F 15.1 °F 31% 30.31 in 10.0 mi South 4.6 mph - N/A   Clear
7:55 PM 41.7 °F 38.8 °F 15.6 °F 35% 30.31 in 10.0 mi South 4.6 mph - N/A   Clear
8:15 PM 41.5 °F 39.6 °F 13.1 °F 31% 30.31 in 10.0 mi South 3.5 mph - N/A   Clear
8:35 PM 39.6 °F 36.3 °F 15.8 °F 38% 30.32 in 10.0 mi South 4.6 mph - N/A   Clear
8:55 PM 38.8 °F 34.6 °F 14.9 °F 38% 30.32 in 10.0 mi South 5.8 mph - N/A   Clear
9:15 PM 37.6 °F 32.3 °F 15.8 °F 41% 30.32 in 10.0 mi South 6.9 mph - N/A   Clear
9:30 PM 37.4 °F 32.1 °F 15.8 °F 41% 30.32 in 10.0 mi South 6.9 mph - N/A   Clear
9:55 PM 38.3 °F 33.2 °F 16.0 °F 40% 30.31 in 10.0 mi South 6.9 mph - N/A   Clear
10:15 PM 38.7 °F 33.6 °F 15.3 °F 39% 30.31 in 10.0 mi South 6.9 mph - N/A   Clear
10:35 PM 37.9 °F 32.1 °F 15.6 °F 40% 30.31 in 10.0 mi South 8.1 mph - N/A   Clear
10:55 PM 37.4 °F 32.1 °F 14.9 °F 40% 30.31 in 10.0 mi South 6.9 mph - N/A   Clear
11:15 PM 37.4 °F 32.1 °F 15.8 °F 41% 30.31 in 10.0 mi South 6.9 mph - N/A   Clear
11:35 PM 37.4 °F 32.1 °F 15.8 °F 41% 30.30 in 10.0 mi South 6.9 mph - N/A   Clear
11:55 PM 36.7 °F 31.2 °F 16.0 °F 43% 30.30 in 10.0 mi South 6.9 mph - N/A   Clear